Regional Weather Roundup
Issued by NWS

Home | Current Version | Previous Version | Text Only | Print | Product List | Glossary On
Versions: 1 2 3 4 5 6 7 8 9 10 11 12 13 14 15 16 17 18 19 20 21 22 23 24 25 26 27 28 29 30 31 32 33 34 35 36 37 38 39 40 41 42 43 44 45 46 47 48 49 50
000
ASUS43 KMPX 231901
RWRMN
WEATHER ROUNDUP FOR MINNESOTA
NATIONAL WEATHER SERVICE TWIN CITIES/CHANHASSEN MN
100 PM CST FRI FEB 23 2018


NOTE: "FAIR" INDICATES FEW OR NO CLOUDS BELOW 12,000 FEET WITH NO
SIGNIFICANT WEATHER AND/OR OBSTRUCTIONS TO VISIBILITY. N/A MEANS
CURRENT SKY AND/OR WEATHER CONDITIONS ARE NOT AVAILABLE.

MNZ060>063-068>070-232000-
   Twin Cities Metro

CITY           SKY/WX    TMP DP  RH WIND       PRES   REMARKS
TWIN CITIES    PTSUNNY   31  23  72 W9        30.19R WCI  23
ST PAUL        CLOUDY    30  22  72 W13       30.20R WCI  20
CRYSTAL        PTSUNNY   29  20  69 W9        30.18R WCI  20
BLAINE         PTSUNNY   32  21  64 W12       30.17S WCI  23
LAKEVILLE      PTSUNNY   28  21  74 W8        30.19S WCI  20
EDEN PRAIRIE   PTSUNNY   29  20  69 W10       30.18R WCI  20
SOUTH ST PAUL  FAIR      31  22  69 W9        30.19R WCI  23
LAKE ELMO      CLOUDY    30  23  74 W10       30.18R WCI  21
$$
MNZ001>005-007-008-013>017-022>024-027-028-232000-
   Northwest Minnesota

CITY           SKY/WX    TMP DP  RH WIND       PRES   REMARKS
BEMIDJI        FAIR      25  18  74 W12       30.11S WCI  14
HALLOCK        FAIR      14   7  73 NW6       30.18F WCI   5
ROSEAU         FAIR      18  10  73 W10G17    30.13S WCI   6
WARROAD        FAIR      19  10  68 SW9       30.12R WCI   9
THIEF RVR FALL FAIR      14   5  67 W12       30.18R WCI   0
CROOKSTON      FAIR      16   7  67 NW12      30.21S WCI   3
FOSSTON        FAIR      21   7  53 W7        30.17S WCI  13
DETROIT LAKES  FAIR      19  14  79 W13       30.19R WCI   7
MOORHEAD       FAIR      16   7  67 NW8       30.24S WCI   5
PARK RAPIDS    PTSUNNY   26  20  77 W13       30.12R WCI  15
MAHNOMEN       FAIR      16   8  70 NW9       30.18S WCI   5
$$
MNZ006-009>011-018-025>026-232000-
   North Central Minnesota

CITY           SKY/WX    TMP DP  RH WIND       PRES   REMARKS
BAUDETTE       FAIR      24  15  68 W6        30.07F WCI  17
FLAG ISLAND    FAIR      19  12  73 SE6       30.08F WCI  11
INTL FALLS     CLOUDY    26  19  74 W6        30.07S WCI  19
WASKISH        PTSUNNY   25  19  80 SW9       30.10F WCI  15
LONGVILLE      FAIR      28  19  69 NW8       30.10S WCI  20
GRAND RAPIDS   CLOUDY    29  21  72 NW12      30.10R WCI  19
CRANE LAKE     LGT SNOW  27  19  74 NW3       30.07S
ORR            CLOUDY    27  18  69 NW8       30.03S WCI  18
COOK             N/A     27  21  80 W8        30.06S WCI  18
WALKER         CLOUDY    26  19  72 W8        30.11R WCI  18
$$
MNZ012-019>021-037-232000-
   Northeast Minnesota

CITY           SKY/WX    TMP DP  RH WIND       PRES   REMARKS
DULUTH         CLOUDY    29  21  72 NW10      30.05R WCI  20
ELY            CLOUDY    25  19  80 W9        30.03R WCI  15
HIBBING        MIX PCPN  26  19  74 NW12      30.06R WCI  16
DULUTH HARBOR  CLOUDY    30  25  80 W12       30.10R WCI  21
TWO HARBORS    CLOUDY    34  25  69 W9        30.03R WCI  26
SILVER BAY     PTSUNNY   32  23  69 W6        30.01R WCI  26
GRAND MARAIS     N/A     34  24  67 W9        30.01R WCI  27
G MARAIS ARPRT CLOUDY    27  18  69 W7        29.95R WCI  19
$$
MNZ029>031-032-039>041-046>048-054>057-064-232000-
   West Central Minnesota

CITY           SKY/WX    TMP DP  RH WIND       PRES   REMARKS
FERGUS FALLS   FAIR      18  12  79 NW12      30.22S WCI   5
WHEATON        SNOW      19  12  73 NW12      30.26S VSB 1/2 WCI   7
MORRIS         SUNNY     21  16  79 NW13      30.22R WCI   9
ALEXANDRIA     FAIR      23  17  78 NW14      30.17S WCI  11
ELBOW LAKE     PTSUNNY   18  14  84 NW12      30.21S WCI   6
WADENA         FAIR      25  18  74 W7        30.15S WCI  17
GLENWOOD       FAIR      23  18  80 W14       30.18S WCI  11
APPLETON       MOSUNNY   25  18  74 NW10      30.25R WCI  15
BENSON         MOSUNNY   21  18  86 N13       30.25R WCI   9
ORTONVILLE     SUNNY     25  18  74 NW9       30.24R WCI  15
MADISON          N/A     27  21  80 NW13      30.25R WCI  16
WILLMAR        PTSUNNY   23  19  86 NW14      30.24R WCI  11
$$
MNZ033>034-036-042>043-049>051-058-059-232000-
   Central Minnesota

CITY           SKY/WX    TMP DP  RH WIND       PRES   REMARKS
ST CLOUD       FAIR      29  20  69 W7        30.16R WCI  22
SAUK CENTRE    FAIR      25  19  76 W16       30.17R WCI  13
PAYNESVILLE    FAIR      28  22  77 W13       30.19R WCI  18
AITKIN         FAIR      28  19  69 NW8       30.09S WCI  20
PINE RIVER     PTSUNNY   27  19  74 W8        30.15R WCI  18
BRAINERD       SNOW      30  20  66 NW10      30.13R VSB 1/2 WCI  21
STAPLES        FAIR      27  19  74 W13       30.15R WCI  16
LONG PRAIRIE   FAIR      30  21  69 W9        30.15S WCI  22
LITTLE FALLS   FAIR      32  18  55 W7        30.15S WCI  26
LITCHFIELD     FAIR      28  21  74 W8        30.20R WCI  20
BUFFALO        FAIR      29  19  66 W9        30.19S WCI  21
MAPLE LAKE     FAIR      32  22  66 W6        30.19R WCI  26
HUTCHINSON     FAIR      27  21  79 W12       30.22R WCI  16
$$
MNZ037-044-045-052-053-232000-
   East Central Minnesota

CITY           SKY/WX    TMP DP  RH WIND       PRES   REMARKS
PRINCETON      FAIR      32  21  64 W8        30.16F WCI  25
CAMBRIDGE      PTSUNNY   30  19  64 W9        30.16R WCI  22
RUSH CITY      FAIR      32  22  64 W7        30.14R WCI  26
MOOSE LAKE     CLOUDY    30  21  69 W8        30.09R WCI  23
HINCKLEY       CLOUDY    32  23  69 W9        30.13R WCI  24
CLOQUET        CLOUDY    28  19  69 W8        30.07R WCI  20
MCGREGOR       FAIR      32  21  64 NW7       30.09S WCI  26
$$
MNZ071>073-080-081-089-090-097-098-232000-
   Southwest Minnesota

CITY           SKY/WX    TMP DP  RH WIND       PRES   REMARKS
MONTEVIDEO     SUNNY     28  19  69 N12       30.24R WCI  18
GRANITE FALLS  PTSUNNY   26  21  80 W13       30.26R WCI  15
CANBY          SUNNY     27  20  74 NW10      30.26R WCI  17
MARSHALL       PTSUNNY   26  19  74 NW10      30.26R WCI  16
REDWOOD FALLS  CLOUDY    24  19  81 W12       30.24S WCI  13
OLIVIA         CLOUDY    27  21  80 NW12      30.23R WCI  16
PIPESTONE      PTSUNNY   23  19  86 NW7       30.24R WCI  15
WORTHINGTON    MOSUNNY   27  21  78 W10       30.24S WCI  17
JACKSON        MOSUNNY   27  19  74 NW13      30.23S WCI  16
TRACY          SUNNY     25  21  83 NW9       30.24S WCI  16
SLAYTON        MOSUNNY   25  20  82 W10       30.24R WCI  15
$$
MNZ065>067-074>077-082>085-091>093-232000-
   South Central Minnesota

CITY           SKY/WX    TMP DP  RH WIND       PRES   REMARKS
MANKATO        CLOUDY    23  19  85 W14       30.23S FOG     WCI  11
NEW ULM          N/A     19  18  93 W13       30.24S FOG     WCI   7
ST JAMES       SUNNY     25  19  80 W16       30.25S WCI  12
FAIRMONT       SUNNY     28  20  71 NW13      30.25R WCI  17
GLENCOE        FAIR      27  22  79 SW9       30.21R WCI  18
FARIBAULT      FAIR      27  19  74 W12       30.21S HAZE    WCI  16
OWATONNA         N/A     25  19  80 W9        30.21R FOG     WCI  15
WASECA         CLOUDY    23  19  86 W12       30.24R FOG     WCI  12
ALBERT LEA     FAIR      23  18  80 W8        30.21F WCI  14
$$
MNZ078>079-086>088-094>096-232000-
   Southeast Minnesota

CITY           SKY/WX    TMP DP  RH WIND       PRES   REMARKS
ROCHESTER      CLOUDY    23  21  92 W16       30.19R FOG     WCI  10
RED WING       CLOUDY    28  21  74 W8        30.19S WCI  20
STANTON        CLOUDY    29  21  74 W10       30.18F WCI  19
DODGE CENTER   CLOUDY    21  19  93 W10       30.19R FOG     WCI  10
WINONA         PTSUNNY   32  25  74 NW14      30.18R WCI  22
AUSTIN         CLOUDY    23  18  80 NW14      30.20S HAZE    WCI  11
PRESTON        FAIR      25  22  86 W12       30.18S WCI  15
$$
ABBREVIATIONS USED IN REMARKS
   TC - TEMPERATURES IN CELSIUS
  WCI - WIND CHILL INDEX
   HX - HEAT INDEX
  VSB - VISIBILITY
$$




USA.gov is the U.S. government's official web portal to all federal, state and local government web resources and services.